Theta_e
320 316 316 315 315 317 318 318 318 319 321 318 318 319 321 322 322 321 321 330 332 333 333 333 333 333 333 333 332 330 329 326 322 320 317 317 317 317 317 315 314 314 313 311
318 318 319 317 318 318 318 317 318 320 321 322 322 322 322 322 323 324 324 331 332 333 333 333 334 334 334 333 332 330 328 325 324 322 320 320 319 318 317 315 315 314 313 312
319 321 321 321 320 321 319 322 322 323 321 320 321 320 325 325 326 326 326 325 332 333 334 334 334 334 333 332 331 328 325 323 322 322 321 319 318 318 317 316 315 314 313 310
321 322 322 321 322 321 322 322 322 321 319 319 320 320 325 324 325 326 328 331 332 333 334 334 333 333 331 330 326 324 323 322 322 322 320 318 318 318 316 314 314 313 311 309
323 323 323 323 323 323 322 322 322 322 320 318 323 324 323 325 325 325 327 331 332 333 333 333 332 331 330 328 324 323 323 323 321 319 318 319 317 315 314 314 313 312 311 308
325 325 323 323 323 323 322 320 321 320 317 322 324 325 324 325 327 329 330 330 331 332 332 332 331 329 328 324 323 323 323 320 319 319 317 316 314 314 314 313 312 311 309 308
325 325 324 324 323 321 319 321 323 325 323 326 324 327 325 325 324 328 330 328 330 330 328 326 325 325 323 323 322 321 320 320 319 318 317 315 315 313 312 312 310 308 308 308
325 325 324 324 324 323 323 320 322 328 326 325 325 327 325 323 324 328 328 327 327 326 325 322 322 321 321 320 319 317 317 317 317 316 316 314 313 313 312 309 308 308 307 307
324 325 325 324 323 322 322 321 319 322 321 321 325 326 325 322 320 321 320 320 321 318 317 317 316 316 316 316 316 316 316 316 316 315 315 314 313 312 309 307 307 307 306 306
324 323 324 326 325 324 324 321 324 321 326 328 327 328 327 321 319 317 317 315 316 315 315 314 314 314 313 313 312 311 311 311 312 312 311 311 310 308 306 306 307 305 305 305
324 324 326 325 326 326 323 324 324 323 326 326 326 324 322 319 320 316 316 314 314 313 313 312 312 312 311 309 307 306 306 306 305 307 308 307 306 306 306 306 306 306 305 306
324 323 325 326 324 325 325 327 322 324 325 324 322 320 317 317 316 315 315 313 313 313 312 312 312 311 309 308 306 306 305 304 305 307 306 305 305 305 305 306 305 305 306 306
320 319 320 319 317 321 324 324 325 323 318 321 322 321 321 320 317 316 315 314 314 314 313 313 312 310 309 307 306 305 304 304 305 305 305 304 305 306 306 306 306 306 307 307
321 320 319 319 321 322 324 324 324 324 322 324 322 323 322 319 315 316 315 314 313 312 312 312 311 310 308 306 305 305 304 304 304 305 305 306 306 307 307 306 306 306 306 306
320 323 325 325 326 326 325 324 324 324 322 323 322 324 320 315 315 315 314 313 312 311 312 312 310 307 306 306 305 305 305 304 305 306 306 306 306 307 306 306 306 306 306 306
321 323 325 326 326 324 324 322 322 322 322 320 318 318 315 316 316 315 314 314 313 313 312 309 307 306 305 305 305 304 304 305 306 306 306 306 306 306 306 306 307 306 307 306
319 320 321 323 324 323 320 321 321 320 319 318 317 316 316 316 315 314 314 313 312 310 309 307 305 305 306 306 304 305 305 305 306 306 305 306 306 306 306 306 307 307 307 307
318 319 319 320 319 320 320 321 321 321 319 317 317 318 317 314 313 313 312 312 310 309 307 306 306 306 304 304 305 305 306 305 305 306 305 306 306 306 306 307 307 306 306 307
319 319 320 318 314 321 324 323 321 320 321 318 319 317 316 313 312 310 310 310 309 306 306 306 305 304 305 305 306 305 306 305 305 306 305 306 306 305 305 306 306 306 306 306
322 319 319 320 323 324 323 320 320 320 322 317 315 315 314 314 312 310 309 308 307 305 305 305 305 304 304 305 305 305 306 305 306 306 305 305 306 305 305 305 305 305 306 305
325 325 324 322 323 324 319 319 319 321 321 316 314 313 313 311 311 310 308 307 305 305 305 304 304 305 305 304 304 305 305 305 305 305 305 304 306 305 305 305 303 302 305 304
324 323 323 323 323 324 318 319 319 316 314 313 312 311 311 309 308 307 306 305 304 305 304 304 304 303 303 305 305 305 306 305 305 304 305 305 305 305 305 304 303 302 303 302
321 319 318 316 316 317 317 316 315 314 313 311 311 309 309 307 306 305 305 305 305 304 304 305 305 305 305 305 305 305 303 304 303 303 304 304 305 305 304 304 302 302 301 301
320 319 317 316 318 317 314 313 312 313 312 311 309 307 306 305 305 305 305 305 305 304 305 304 304 305 305 305 305 303 302 303 304 304 304 304 305 305 304 303 302 302 301 301
317 316 314 316 316 315 314 312 313 311 310 309 307 306 305 305 305 305 305 303 303 304 304 305 305 305 305 305 304 303 303 303 303 304 304 304 304 304 303 302 301 301 300 300
316 311 312 313 317 316 313 312 312 311 309 307 306 305 305 305 305 304 302 303 305 306 306 306 306 305 303 303 304 303 303 303 304 304 304 304 303 302 301 301 301 301 301 301
Wind_Speed
9 3 6 11 7 6 3 5 6 5 5 4 2 6 8 10 10 14 17 35 33 34 39 37 34 28 23 16 8 3 6 5 8 8 7 7 9 13 21 26 27 29 31 32
4 7 14 7 10 6 3 2 6 4 9 5 3 2 2 9 8 19 20 25 28 34 39 38 31 24 15 12 10 9 6 3 6 7 8 9 12 18 25 27 26 29 34 36
5 6 2 4 5 7 4 5 4 2 6 6 7 6 12 7 23 19 7 22 36 41 38 33 28 19 16 12 7 3 3 7 10 10 10 11 15 23 29 29 28 33 34 36
2 7 5 7 5 3 4 1 5 5 5 1 5 3 5 7 12 13 24 18 27 29 33 29 24 23 16 5 2 5 5 9 8 9 10 15 25 29 25 25 27 31 32 37
6 5 2 4 1 3 5 2 4 2 2 3 6 5 5 5 8 8 15 14 13 18 17 23 21 13 5 4 5 5 6 5 6 9 17 24 19 17 19 21 25 29 36 37
5 11 3 2 2 5 4 4 7 5 2 3 4 4 4 3 3 5 17 21 16 14 13 14 9 7 6 8 10 9 4 3 9 15 11 9 13 15 17 20 25 33 37 32
5 6 5 9 6 7 10 7 4 5 5 4 3 4 5 2 5 7 18 24 18 10 7 7 11 10 10 10 8 1 4 10 8 9 10 11 12 13 17 25 32 34 32 28
2 5 6 8 2 4 1 6 4 2 2 5 5 4 3 3 15 23 24 21 20 16 12 13 16 15 14 12 6 4 3 5 4 7 10 13 16 20 25 29 30 27 26 23
3 4 6 8 5 2 4 2 4 4 3 3 2 2 4 7 11 17 18 20 21 27 31 30 25 21 16 12 11 9 9 11 13 16 20 22 24 27 31 33 27 22 20 21
4 3 3 6 6 6 5 3 5 4 2 3 2 2 4 6 6 8 14 24 30 29 25 21 18 15 13 12 12 14 16 17 19 21 22 24 26 30 29 23 17 13 18 22
2 3 6 4 2 4 5 3 4 4 4 4 1 4 4 7 5 8 18 26 30 26 21 17 14 14 16 21 26 28 28 25 22 19 19 23 27 24 17 14 10 13 16 17
0 3 2 5 6 1 4 3 4 5 5 2 4 4 5 4 12 23 24 27 23 19 16 15 17 21 27 31 33 31 25 20 13 14 18 22 21 18 13 12 13 13 15 16
0 2 3 8 7 6 4 7 4 4 3 3 4 4 1 10 18 16 22 20 15 11 10 13 17 24 30 32 29 23 20 16 15 15 17 16 15 15 16 15 14 13 15 15
4 3 5 5 6 4 6 10 6 5 3 5 5 5 4 8 12 17 18 12 11 9 11 15 21 27 29 26 21 19 16 15 15 14 15 15 16 17 17 15 14 15 15 13
4 2 2 4 5 4 5 9 8 4 7 5 5 6 3 7 11 13 13 11 9 9 13 17 20 24 22 17 16 15 14 13 14 14 16 16 15 17 18 16 16 16 15 13
3 2 2 4 5 6 6 9 5 6 5 11 16 9 5 14 14 9 9 8 8 11 11 15 21 19 16 15 14 14 13 13 16 16 16 16 18 19 20 16 15 14 13 13
4 4 3 4 5 5 5 7 12 12 11 6 6 3 8 5 7 6 6 3 2 3 11 18 16 13 14 12 13 13 13 12 13 16 15 18 18 17 20 14 14 14 14 12
6 5 3 3 4 2 3 11 15 16 11 7 7 5 5 12 11 8 4 3 2 8 16 16 13 12 11 12 11 11 13 12 13 14 15 18 17 17 17 13 14 14 13 11
7 5 2 3 3 4 3 6 6 1 5 6 6 8 12 15 12 8 3 3 8 13 16 13 10 9 10 11 12 13 14 13 13 13 14 14 17 16 15 12 10 11 13 11
5 4 4 3 2 3 1 12 14 5 3 12 11 9 5 4 3 1 2 5 10 17 12 8 9 10 11 11 12 13 13 12 11 11 13 13 14 17 12 12 13 12 10 11
2 3 3 1 1 2 3 8 20 4 4 1 10 9 6 3 1 4 3 8 11 13 8 6 7 11 10 10 11 12 11 13 14 14 12 12 12 11 11 13 16 12 6 7
2 3 1 2 2 3 3 3 3 6 14 10 9 8 9 6 2 1 6 8 11 9 8 7 9 10 10 14 15 12 11 14 15 15 10 9 12 13 13 15 14 11 8 10
1 5 4 4 4 3 4 9 12 13 13 9 7 6 6 4 4 5 6 9 10 7 9 10 10 9 10 12 15 14 20 15 17 8 6 7 9 12 12 12 14 15 11 11
3 2 4 4 2 10 17 16 14 8 8 5 6 8 8 6 6 6 6 5 6 8 8 8 10 13 11 12 12 14 10 15 13 10 9 8 8 9 10 14 14 16 14 15
4 3 4 4 9 16 11 13 8 8 6 6 7 8 8 6 8 9 8 11 11 8 8 12 12 12 14 11 11 14 13 12 11 13 10 10 9 9 11 12 14 15 17 17
3 5 4 4 12 6 11 10 4 3 5 6 7 7 7 7 7 7 11 13 10 10 13 11 12 10 11 12 10 14 11 13 11 10 10 9 10 10 10 11 10 12 12 13
Wind_Direction
305 84 253 247 220 246 222 235 236 290 342 71 69 68 236 218 219 208 202 176 170 163 165 167 165 166 164 160 157 164 221 224 239 250 262 295 315 334 341 342 344 339 344 343
3 238 241 228 280 226 242 3 340 317 342 83 137 134 38 346 288 223 218 165 156 161 167 165 166 166 168 172 177 193 194 245 293 296 294 309 321 330 332 333 335 342 339 340
185 262 165 179 14 11 43 72 17 73 327 18 44 11 20 8 26 27 36 185 177 168 159 164 162 169 181 180 183 215 301 319 317 302 311 321 326 332 327 325 332 339 336 336
328 337 22 42 61 74 46 312 43 32 60 278 45 254 13 329 7 22 30 134 155 155 164 164 173 176 167 169 231 296 312 295 288 306 318 324 327 322 317 324 332 332 333 333
271 294 255 84 203 48 227 309 30 349 49 113 341 90 257 360 353 342 16 69 102 125 156 166 162 154 195 272 237 213 251 264 315 315 318 313 309 307 312 317 320 325 330 328
288 338 115 98 32 58 305 19 38 37 56 33 251 113 326 13 273 311 68 78 91 102 134 132 135 199 225 208 214 211 224 287 313 314 304 293 287 292 296 309 320 328 329 324
354 349 355 25 17 7 53 51 344 359 6 234 204 46 239 359 8 80 113 106 122 132 63 185 157 166 137 125 132 102 331 331 301 272 248 263 273 297 317 326 331 331 326 318
89 336 18 331 289 226 108 133 155 256 247 265 5 128 179 145 108 111 118 119 127 155 181 117 117 105 94 95 104 81 19 316 299 273 286 296 302 310 321 329 333 329 320 319
37 299 330 11 350 44 312 338 188 128 6 71 216 330 317 78 69 87 93 104 106 103 101 97 99 100 96 82 56 25 355 337 320 311 304 301 307 318 326 328 321 321 330 331
330 341 310 304 349 20 78 250 37 21 27 312 288 236 212 105 125 114 97 91 106 96 97 94 88 77 60 36 12 349 338 326 318 312 310 314 318 320 321 318 320 340 358 358
60 110 286 6 28 276 342 35 60 124 146 210 260 265 231 157 155 115 89 97 100 97 93 86 69 42 18 359 349 344 338 335 325 318 320 323 324 326 328 336 345 342 348 352
268 140 310 270 280 90 134 142 111 115 269 215 150 271 359 93 93 81 94 93 95 91 84 60 34 16 3 356 348 344 345 349 339 326 326 332 334 338 345 352 349 347 354 358
242 28 7 345 351 2 18 339 121 143 90 219 152 230 22 89 72 80 105 101 93 77 53 31 13 3 356 349 346 348 352 355 360 355 360 14 27 18 2 355 354 352 349 350
91 104 148 196 234 223 312 326 286 141 156 224 221 172 218 76 96 93 89 96 98 67 35 16 5 357 348 344 347 350 359 1 10 30 29 11 10 9 2 358 357 353 353 353
94 179 221 239 263 311 296 312 301 268 229 171 224 132 113 123 124 124 117 113 70 41 16 1 350 347 346 354 360 10 14 29 40 23 13 12 11 11 9 6 5 3 4 1
16 255 327 274 273 303 305 297 61 19 48 65 84 69 79 115 112 100 76 57 21 4 350 351 348 346 357 358 0 13 52 35 24 18 12 19 18 13 4 355 359 358 357 359
129 120 67 277 338 333 12 340 86 75 52 71 67 46 154 110 105 109 93 45 42 15 359 343 345 355 358 5 34 35 29 23 19 16 24 12 12 9 5 11 9 7 4 3
152 121 124 247 8 23 175 83 96 84 62 65 88 69 133 114 102 118 137 141 66 360 349 351 357 0 24 53 35 19 16 15 11 18 27 21 6 5 9 12 10 8 9 13
157 119 108 137 181 272 28 24 344 38 69 33 96 73 86 141 111 78 86 0 2 358 354 355 5 61 41 32 30 27 24 27 31 30 20 6 2 3 3 8 9 14 22 20
73 79 121 138 130 245 25 335 332 242 71 15 77 60 59 60 345 169 188 347 356 351 350 18 65 48 43 36 29 27 27 24 19 7 359 1 352 359 5 4 3 7 13 12
35 51 258 137 279 266 212 359 41 33 246 61 87 75 76 100 181 163 281 338 347 354 356 93 62 46 33 22 19 13 5 0 354 349 343 349 350 351 353 354 359 353 324 318
143 115 60 76 237 305 180 2 143 131 107 112 91 84 87 102 89 20 346 354 354 6 65 76 58 43 32 10 355 348 346 346 338 341 334 332 353 344 342 345 352 355 338 341
329 177 170 156 198 100 58 105 117 137 118 96 65 46 4 12 16 355 1 357 4 65 67 54 44 22 4 4 358 351 353 332 348 344 4 357 350 346 349 354 8 10 19 30
294 169 102 92 78 115 115 107 106 83 73 51 8 357 354 20 13 354 343 13 72 90 67 45 19 5 15 15 5 11 12 7 13 18 7 9 351 342 345 353 1 7 23 29
226 75 115 60 107 115 121 121 110 95 70 24 6 17 20 43 47 51 67 86 91 74 46 22 22 23 8 18 21 27 22 12 14 11 14 20 9 358 346 351 357 7 11 18
336 170 152 200 186 178 143 138 133 51 35 32 15 24 51 74 64 67 94 92 72 35 29 31 7 10 19 4 25 21 14 7 15 10 24 19 3 4 12 8 10 10 15 25